K5HAS Weather Reports


time (UTC)temp
F
wind
direction
speed
knots
gust
knots
rain 1hr
in
rain 24hr
in
rain mn
in
humidity
%
barometer
mb
20260506091937 76 128 3.5 7.8 0.00 0.00 0.00 89 1006.4
20260506091423 76 120 3.5 7.8 0.00 0.00 0.00 89 1006.2
20260506090919 76 122 4.3 7.8 0.00 0.00 0.00 89 1006.2
20260506085918 76 128 3.5 9.6 0.00 0.00 0.00 89 1006.3
20260506085640 76 126 2.6 8.7 0.00 0.00 0.00 89 1006.3
20260506084917 76 134 3.5 7.0 0.00 0.00 0.00 89 1006.3
20260506084417 76 134 3.5 7.8 0.00 0.00 0.00 89 1006.2
20260506083918 76 144 4.3 7.8 0.00 0.00 0.00 89 1006.2
20260506083416 76 134 4.3 7.8 0.00 0.00 0.00 89 1006.2
20260506082916 76 147 3.5 7.0 0.00 0.00 0.00 88 1006.2
20260506082641 76 135 4.3 7.8 0.00 0.00 0.00 89 1006.2
20260506081916 76 154 4.3 7.8 0.00 0.00 0.00 88 1006.2
20260506081416 76 153 4.3 7.8 0.00 0.00 0.00 88 1006.5
20260506080916 76 90 3.5 7.8 0.00 0.00 0.00 88 1006.5
20260506080416 76 141 3.5 7.8 0.00 0.00 0.00 88 1006.5
20260506073333 77 145 3.5 7.8 0.00 0.00 0.00 88 1006.8
20260506072827 77 133 3.5 7.8 0.00 0.00 0.00 88 1007.1
20260506072322 77 146 4.3 7.0 0.00 0.00 0.00 88 1007.1
20260506071822 77 156 4.3 7.8 0.00 0.00 0.00 88 1007.1
20260506071323 77 151 5.2 8.7 0.00 0.00 0.00 88 1007.2
20260506071043 77 90 5.2 8.7 0.00 0.00 0.00 88 1007.2
20260506070318 77 90 5.2 7.8 0.00 0.00 0.00 88 1007.2
20260506062306 77 157 5.2 11.3 0.00 0.00 0.00 88 1007.7
20260506061756 77 169 5.2 11.3 0.00 0.00 0.00 88 1007.7
20260506061250 77 90 6.1 10.4 0.00 0.00 0.00 88 1007.7
20260506060741 77 170 5.2 10.4 0.00 0.00 0.00 88 1007.7
20260506060231 77 164 6.1 10.4 0.00 0.00 0.00 88 1007.7
20260506051109 77 170 7.8 12.2 0.00 0.00 0.00 88 1007.2
20260506050558 77 158 7.8 12.2 0.00 0.00 0.00 88 1007.2
20260506045039 77 90 8.7 13.9 0.00 0.00 0.00 88 1007.1
20260506044529 77 90 8.7 13.9 0.00 0.00 0.00 88 1007.1
20260506044023 77 117 7.8 15.6 0.00 0.00 0.00 88 1007.0
20260506043517 77 161 7.8 15.6 0.00 0.00 0.00 88 1007.0
20260506043016 77 169 8.7 14.8 0.00 0.00 0.00 87 1007.0
20260506042518 77 158 8.7 14.8 0.00 0.00 0.00 87 1006.8
20260506042016 77 147 9.6 15.6 0.00 0.00 0.00 87 1006.8
20260506041516 77 149 10.4 15.6 0.00 0.00 0.00 87 1006.8
20260506041016 77 90 10.4 15.6 0.00 0.00 0.00 87 1006.9
20260506040516 77 90 9.6 14.8 0.00 0.00 0.00 87 1006.9
20260506040017 77 90 9.6 14.8 0.00 0.00 0.00 87 1006.9
20260506035516 77 90 9.6 17.4 0.00 0.00 0.00 87 1006.7
20260506035018 77 90 9.6 17.4 0.00 0.00 0.00 87 1006.7
20260506034517 77 90 10.4 18.2 0.00 0.00 0.00 87 1006.7
20260506034017 77 151 9.6 18.2 0.00 0.00 0.00 87 1006.7
20260506033515 77 134 9.6 14.8 0.00 0.00 0.00 87 1006.7
20260506033006 77 90 8.7 14.8 0.00 0.00 0.00 87 1006.7
20260506032503 77 148 7.8 13.9 0.00 0.00 0.00 87 1006.7
20260506031949 77 141 7.0 13.9 0.00 0.00 0.00 87 1006.7
20260506031440 77 172 7.8 13.9 0.00 0.00 0.00 87 1006.7
20260506030933 77 166 7.8 13.9 0.00 0.00 0.00 87 1006.7
20260506030429 77 161 7.0 12.2 0.00 0.00 0.00 87 1006.7
20260506025930 77 152 7.8 11.3 0.00 0.00 0.00 87 1006.5
20260506025428 77 172 7.0 13.0 0.00 0.00 0.00 87 1006.5
20260506024934 77 149 6.1 13.0 0.00 0.00 0.00 87 1006.5
20260506024426 77 157 7.0 13.0 0.00 0.00 0.00 87 1006.2
20260506024154 77 155 7.0 13.0 0.00 0.00 0.00 87 1006.2
20260506023424 77 152 7.8 11.3 0.00 0.00 0.00 86 1006.2
20260506022925 77 161 7.8 11.3 0.00 0.00 0.00 86 1006.1
20260506022422 77 90 7.8 13.9 0.00 0.00 0.00 86 1006.1
20260506021922 77 174 7.8 13.9 0.00 0.00 0.00 86 1006.1
20260506021423 77 146 7.8 12.2 0.00 0.00 0.00 86 1005.7
20260506021132 77 171 8.7 12.2 0.00 0.00 0.00 86 1005.7
20260506020355 77 134 8.7 12.2 0.00 0.00 0.00 86 1005.7
20260506015843 78 166 7.8 13.9 0.00 0.00 0.00 86 1005.7
20260506015340 78 132 7.8 13.9 0.00 0.00 0.00 86 1005.7
20260506014840 78 147 8.7 13.0 0.00 0.00 0.00 86 1005.7
20260506014340 78 159 9.6 13.0 0.00 0.00 0.00 86 1005.5
20260506013841 78 159 9.6 13.9 0.00 0.00 0.00 86 1005.5
20260506013342 78 164 8.7 13.9 0.00 0.00 0.00 86 1005.5
20260506012838 78 164 9.6 14.8 0.00 0.00 0.00 86 1005.1
20260506012339 78 177 10.4 15.6 0.00 0.00 0.00 86 1005.1
20260506012102 78 143 10.4 15.6 0.00 0.00 0.00 86 1005.1
20260506011554 78 90 10.4 15.6 0.00 0.00 0.00 85 1005.1
20260506010827 78 90 9.6 15.6 0.00 0.00 0.00 85 1005.1
20260506010325 78 174 9.6 16.5 0.00 0.00 0.00 85 1005.1
20260506010054 78 165 10.4 16.5 0.00 0.00 0.00 85 1005.0
20260506005326 78 184 9.6 16.5 0.00 0.00 0.00 85 1005.0
20260506004818 78 90 9.6 16.5 0.00 0.00 0.00 85 1005.0
20260506004318 78 166 10.4 17.4 0.00 0.00 0.00 85 1004.8
20260506004043 79 90 10.4 18.2 0.00 0.00 0.00 85 1004.8
20260506003315 79 90 9.6 18.2 0.00 0.00 0.00 85 1004.8
20260506002816 79 90 10.4 20.0 0.00 0.00 0.00 85 1004.8
20260506002320 79 157 10.4 20.0 0.00 0.00 0.00 85 1004.8
20260506001816 79 157 10.4 16.5 0.00 0.00 0.00 85 1004.8
20260506001324 79 90 9.6 15.6 0.00 0.00 0.00 85 1004.8
20260506000809 79 171 11.3 16.5 0.00 0.00 0.00 85 1004.8
20260506000258 79 90 11.3 18.2 0.00 0.00 0.00 85 1004.8
20260505235744 79 158 10.4 18.2 0.00 0.00 0.00 84 1004.6
20260505235239 79 143 10.4 20.0 0.00 0.00 0.00 84 1004.6
20260505234733 80 145 11.3 20.0 0.00 0.00 0.00 84 1004.6
20260505234229 80 161 13.0 20.0 0.00 0.00 0.00 84 1004.8
20260505233727 80 157 12.2 20.0 0.00 0.00 0.00 84 1004.8
20260505233225 80 175 10.4 19.1 0.00 0.00 0.00 84 1004.8
20260505232945 80 90 9.6 20.0 0.00 0.00 0.00 84 1004.9
20260505232227 80 155 10.4 20.0 0.00 0.00 0.00 84 1004.9
20260505231726 80 170 10.4 20.0 0.00 0.00 0.00 84 1004.9
20260505231458 80 167 11.3 20.0 0.00 0.00 0.00 84 1004.8
20260505230731 80 144 11.3 18.2 0.00 0.00 0.00 84 1004.8
20260505230225 80 90 11.3 19.1 0.00 0.00 0.00 84 1004.8
20260505225727 80 155 12.2 19.1 0.00 0.00 0.00 84 1005.1
20260505225500 80 148 13.0 19.1 0.00 0.00 0.00 83 1005.1
20260505224942 80 172 13.0 20.0 0.00 0.00 0.00 83 1005.1
20260505223717 80 90 11.3 18.2 0.00 0.00 0.00 83 1005.1
20260505223210 81 130 10.4 18.2 0.00 0.00 0.00 83 1005.1
20260505222659 81 90 10.4 17.4 0.00 0.00 0.00 83 1005.1
20260505222159 81 162 10.4 17.4 0.00 0.00 0.00 83 1005.1
20260505221658 81 152 10.4 16.5 0.00 0.00 0.00 83 1005.1
20260505221200 81 156 10.4 16.5 0.00 0.00 0.00 83 1005.3
20260505220656 81 153 10.4 16.5 0.00 0.00 0.00 83 1005.3
20260505220155 81 140 10.4 16.5 0.00 0.00 0.00 83 1005.3
20260505215655 81 130 9.6 17.4 0.00 0.00 0.00 83 1005.6
20260505215156 81 151 10.4 17.4 0.00 0.00 0.00 83 1005.6
20260505214655 81 144 10.4 16.5 0.00 0.00 0.00 83 1005.6
20260505214155 81 90 11.3 18.2 0.00 0.00 0.00 83 1005.6
20260505213928 81 183 11.3 18.2 0.00 0.00 0.00 83 1005.6
20260505213155 81 161 8.7 16.5 0.00 0.00 0.00 83 1005.6
20260505212657 82 134 8.7 15.6 0.00 0.00 0.00 83 1005.7
20260505212420 82 150 10.4 15.6 0.00 0.00 0.00 83 1005.7
20260505211700 82 155 9.6 14.8 0.00 0.00 0.00 82 1005.7
20260505211201 82 166 8.7 14.8 0.00 0.00 0.00 82 1005.9
20260505210912 82 161 7.8 14.8 0.00 0.00 0.00 82 1005.9
20260505205646 82 134 10.4 17.4 0.00 0.00 0.00 82 1006.1
20260505205147 82 161 11.3 18.2 0.00 0.00 0.00 82 1006.1
20260505204643 82 163 11.3 18.2 0.00 0.00 0.00 82 1006.1
20260505204407 82 181 10.4 18.2 0.00 0.00 0.00 82 1006.3
20260505203642 82 170 10.4 19.1 0.00 0.00 0.00 83 1006.3
20260505203138 82 161 10.4 19.1 0.00 0.00 0.00 83 1006.3
20260505202638 81 90 9.6 18.2 0.00 0.00 0.00 83 1006.6
20260505202137 81 172 9.6 17.4 0.00 0.00 0.00 83 1006.6
20260505201636 81 90 10.4 19.1 0.00 0.00 0.00 83 1006.6
20260505201136 82 90 11.3 19.1 0.00 0.00 0.00 83 1006.6
20260505200637 82 190 10.4 15.6 0.00 0.00 0.00 83 1006.6
20260505200138 82 90 9.6 15.6 0.00 0.00 0.00 83 1006.6
20260505195854 81 165 9.6 17.4 0.00 0.00 0.00 83 1006.7
20260505195122 81 90 10.4 18.2 0.00 0.00 0.00 83 1006.7
20260505194616 81 90 9.6 17.4 0.00 0.00 0.00 83 1006.7
20260505194338 81 165 8.7 18.2 0.00 0.00 0.00 83 1006.8
20260505193556 81 90 8.7 18.2 0.00 0.00 0.00 83 1006.8
20260505193046 81 201 7.0 15.6 0.00 0.00 0.00 83 1006.8
20260505192753 81 90 6.1 12.2 0.00 0.00 0.00 83 1007.0
20260505192026 81 90 6.1 12.2 0.00 0.00 0.00 83 1007.0
20260505191743 81 183 7.0 13.9 0.00 0.00 0.00 83 1007.0
20260505191017 81 178 8.7 14.8 0.00 0.00 0.00 83 1007.1
20260505190518 81 168 9.6 15.6 0.00 0.00 0.00 83 1007.1
20260505190017 81 188 9.6 15.6 0.00 0.00 0.00 83 1007.1
20260505185516 81 90 7.8 14.8 0.00 0.00 0.00 83 1007.2
20260505185017 81 90 8.7 16.5 0.00 0.00 0.00 84 1007.2
20260505184516 81 90 9.6 16.5 0.00 0.00 0.00 84 1007.2
20260505184016 81 163 8.7 16.5 0.00 0.00 0.00 84 1007.2
20260505183519 81 196 7.8 16.5 0.00 0.00 0.00 84 1007.2
20260505183014 81 90 7.0 13.0 0.00 0.00 0.00 84 1007.2
20260505182514 81 191 7.0 13.0 0.00 0.00 0.00 84 1007.2
20260505182014 81 180 7.8 13.0 0.00 0.00 0.00 84 1007.2
20260505181010 81 90 7.8 16.5 0.00 0.00 0.00 84 1007.3
20260505180501 81 149 7.8 17.4 0.00 0.00 0.00 84 1007.3
20260505175951 81 184 8.7 17.4 0.00 0.00 0.00 84 1007.5
20260505175444 80 205 7.8 13.9 0.00 0.00 0.00 84 1007.5
20260505174937 80 178 7.8 16.5 0.00 0.00 0.00 84 1007.5
20260505174431 80 179 7.8 16.5 0.00 0.00 0.00 85 1007.5
20260505173917 80 188 7.8 16.5 0.00 0.00 0.00 85 1007.5
20260505173423 80 190 7.8 15.6 0.00 0.00 0.00 85 1007.5
20260505173141 80 164 7.8 15.6 0.00 0.00 0.00 85 1007.7
20260505172420 80 178 7.8 15.6 0.00 0.00 0.00 85 1007.7
20260505172139 80 196 7.8 15.6 0.00 0.00 0.00 85 1007.7
20260505171420 80 182 7.8 15.6 0.00 0.00 0.00 85 1007.7
20260505170917 80 200 7.8 13.0 0.00 0.00 0.00 86 1007.7
20260505170418 80 201 8.7 7.8 0.00 0.00 0.00 86 1007.7
20260505165909 80 211 8.7 14.8 0.00 0.00 0.00 86 1007.7
20260505165406 80 198 7.8 13.9 0.00 0.00 0.00 86 1007.7
20260505164909 79 232 7.8 16.5 0.00 0.00 0.00 86 1007.7
20260505164625 79 203 7.8 16.5 0.00 0.00 0.00 86 1007.7
20260505163909 79 207 7.0 14.8 0.00 0.00 0.00 86 1007.7
20260505163407 79 234 6.1 14.8 0.00 0.00 0.00 87 1007.7
20260505162853 79 198 7.0 12.2 0.00 0.00 0.00 87 1007.7
20260505162606 78 191 7.0 14.8 0.00 0.00 0.00 87 1007.7
20260505161839 78 202 7.0 14.8 0.00 0.00 0.00 87 1007.7
20260505161333 78 234 7.0 14.8 0.00 0.00 0.00 87 1007.7
20260505160832 78 197 6.1 14.8 0.00 0.00 0.00 87 1007.7
20260505160333 78 202 6.1 13.0 0.00 0.00 0.00 87 1007.7
20260505153332 77 207 7.0 14.8 0.00 0.00 0.00 88 1007.6
20260505152831 77 186 7.0 14.8 0.00 0.00 0.00 88 1007.5
20260505152332 77 120 6.1 12.2 0.00 0.00 0.00 88 1007.5
20260505151832 77 184 6.1 11.3 0.00 0.00 0.00 88 1007.5
20260505151331 77 173 7.0 13.9 0.00 0.00 0.00 88 1007.3
20260505150821 77 182 7.8 14.8 0.00 0.00 0.00 88 1007.3
20260505150317 77 90 7.0 13.9 0.00 0.00 0.00 88 1007.3
20260505140641 76 194 7.0 13.9 0.00 0.00 0.00 88 1007.3
20260505140134 75 178 7.8 13.9 0.00 0.00 0.00 88 1007.3
20260505125041 74 202 6.1 12.2 0.00 0.00 0.00 88 1007.1
20260505124803 74 90 6.1 9.6 0.00 0.00 0.00 88 1007.1
20260505124042 74 90 6.1 11.3 0.00 0.00 0.00 88 1007.0
20260505123540 74 176 7.0 11.3 0.00 0.00 0.00 88 1007.0
20260505123038 74 164 7.0 11.3 0.00 0.00 0.00 88 1007.0
20260505122539 74 168 7.0 12.2 0.00 0.00 0.00 88 1006.6
20260505122040 73 90 7.0 12.2 0.00 0.00 0.00 88 1006.6
20260505121757 73 191 7.0 12.2 0.00 0.00 0.00 88 1006.6
20260505121245 73 166 6.1 12.2 0.00 0.00 0.00 88 1006.6
20260505120519 73 90 6.1 9.6 0.00 0.00 0.00 88 1006.6
20260505120018 73 163 6.1 9.6 0.00 0.00 0.00 88 1006.6
20260505115745 73 170 6.1 9.6 0.00 0.00 0.00 88 1006.7
20260505115016 73 152 5.2 9.6 0.00 0.00 0.00 88 1006.7
20260505114740 72 166 6.1 9.6 0.00 0.00 0.00 88 1006.7
20260505114016 72 90 5.2 9.6 0.00 0.00 0.00 88 1006.7
20260505113517 72 170 5.2 7.8 0.00 0.00 0.00 88 1006.7
20260505113236 72 155 5.2 7.0 0.00 0.00 0.00 88 1006.7
20260505112514 72 160 5.2 7.8 0.00 0.00 0.00 88 1006.7
20260505112234 72 157 5.2 8.7 0.00 0.00 0.00 88 1006.7
20260505111513 72 161 5.2 8.7 0.00 0.00 0.00 88 1006.7
20260505111012 72 90 5.2 8.7 0.00 0.00 0.00 88 1006.7
20260505110505 72 161 5.2 8.7 0.00 0.00 0.00 88 1006.7
20260505101843 72 166 6.1 10.4 0.00 0.00 0.00 87 1006.6
20260505101330 72 164 6.1 11.3 0.00 0.00 0.00 87 1006.8
20260505100820 72 90 6.1 11.3 0.00 0.00 0.00 87 1006.8
20260505100314 72 90 6.1 10.4 0.00 0.00 0.00 87 1006.8
20260505095803 72 164 5.2 11.3 0.00 0.00 0.00 87 1006.8
20260505095249 72 90 5.2 9.6 0.00 0.00 0.00 87 1006.8
20260505094743 72 161 5.2 9.6 0.00 0.00 0.00 87 1006.8
20260505094233 72 189 5.2 8.7 0.00 0.00 0.00 87 1007.1
20260505093950 72 186 5.2 11.3 0.00 0.00 0.00 87 1007.1
20260505093218 72 90 5.2 11.3 0.00 0.00 0.00 87 1007.1
20260505092202 72 90 5.2 8.7 0.00 0.00 0.00 87 1007.0